Change the Weather History Date:

Thursday, July 18, 2013

  Actual Average Record
Temperature  
Mean Temperature 84 °F 71 °F  
Max Temperature 92 °F 81 °F 92 °F (2012)
Min Temperature 76 °F 62 °F 46 °F (1924)
Degree Days  
Heating Degree Days 0 0  
Month to date heating degree days 2 4  
Since 1 June heating degree days 54 70  
Since 1 July heating degree days 2 4  
Cooling Degree Days 19 7  
Month to date cooling degree days 163 117  
Year to date cooling degree days 323 251  
Since 1 June cooling degree days 263 222  
Growing Degree Days 33 (Base 50)    
Moisture  
Dew Point 72 °F    
Average Humidity 70    
Maximum Humidity 87    
Minimum Humidity 52    
Precipitation  
Precipitation 0.00 in 0.07 in 2.54 in (1959)
Month to date precipitation 0.60 1.29  
Year to date precipitation 27.62 16.11  
Snow  
Snow 0.00 in 0.00 in - ()
Month to date snowfall 0.0 0.0  
Since 1 June snowfall 0.0 0.0  
Since 1 July snowfall 0.0 0.0  
Snow Depth 0.00 in    
Sea Level Pressure  
Sea Level Pressure 30.06 in    
Wind  
Wind Speed 9 mph (SW)    
Max Wind Speed 16 mph    
Max Gust Speed 22 mph    
Visibility 10 miles    
Events      
T = Trace of Precipitation, MM = Missing Value Source: NWS Daily Summary

Daily Weather History Graph

Daily Weather History Graph

Search for Another Location

Airport or City:

Trip Planner

Search our weather history database for the weather conditions in past years. The results will help you decide how hot, cold, wet, or windy it might be!

Date:

Astronomy

Jul. 18, 2013 Rise Set
Actual Time 6:21 AM EDT 9:20 PM EDT
Civil Twilight 5:47 AM EDT 9:53 PM EDT
Nautical Twilight 5:04 AM EDT 10:37 PM EDT
Astronomical Twilight 4:13 AM EDT 11:27 PM EDT
Moon 5:15 PM EDT (7/18) 2:13 AM EDT (7/18)
Length of Visible Light 16h 06m
Length of Day
14h 58m
Waxing Gibbous, 77% of the Moon is Illuminated
Jul 18
Waxing Gibbous
Jul 22
Full
Jul 29
Last Quarter
Aug 6
New
Aug 14
First Quarter

Hourly Weather History & Observations

Time (EDT) Temp. Heat Index Dew Point Humidity Pressure Visibility Wind Dir Wind Speed Gust Speed Precip Events Conditions
12:55 AM 78.1 °F - 71.1 °F 79% 30.16 in 10.0 mi South 3.5 mph - N/A   Clear
1:55 AM 78.1 °F - 72.0 °F 81% 30.15 in 10.0 mi SW 6.9 mph - N/A   Clear
2:55 AM 78.1 °F - 73.0 °F 84% 30.14 in 10.0 mi SW 5.8 mph - N/A   Clear
3:55 AM 77.0 °F - 72.0 °F 84% 30.13 in 10.0 mi Calm Calm - N/A   Clear
4:55 AM 75.9 °F - 72.0 °F 87% 30.13 in 10.0 mi Calm Calm - N/A   Clear
5:55 AM 79.0 °F - 71.1 °F 77% 30.12 in 10.0 mi West 8.1 mph - N/A   Partly Cloudy
6:55 AM 78.1 °F - 72.0 °F 81% 30.12 in 10.0 mi WSW 5.8 mph - N/A   Partly Cloudy
7:55 AM 80.1 °F 84.2 °F 73.0 °F 79% 30.12 in 10.0 mi WSW 3.5 mph - N/A   Clear
8:55 AM 82.9 °F 88.8 °F 73.0 °F 72% 30.12 in 10.0 mi WSW 4.6 mph - N/A   Clear
9:55 AM 86.0 °F 92.2 °F 72.0 °F 63% 30.11 in 10.0 mi West 5.8 mph - N/A   Clear
10:55 AM 89.1 °F 96.0 °F 72.0 °F 57% 30.11 in 10.0 mi West 5.8 mph - N/A   Clear
11:55 AM 90.0 °F 96.4 °F 71.1 °F 54% 30.10 in 10.0 mi WSW 6.9 mph - N/A   Scattered Clouds
12:55 PM 89.1 °F 97.0 °F 73.0 °F 59% 30.10 in 10.0 mi SW 8.1 mph - N/A   Scattered Clouds
1:55 PM 89.1 °F 96.0 °F 72.0 °F 57% 30.08 in 10.0 mi SSW 10.4 mph - N/A   Scattered Clouds
2:55 PM 89.1 °F 96.0 °F 72.0 °F 57% 30.06 in 10.0 mi SSW 12.7 mph - N/A   Scattered Clouds
3:55 PM 91.0 °F 97.6 °F 71.1 °F 52% 30.04 in 10.0 mi SSW 12.7 mph - N/A   Partly Cloudy
4:55 PM 91.0 °F 97.6 °F 71.1 °F 52% 30.01 in 10.0 mi SSW 12.7 mph - N/A   Partly Cloudy
5:55 PM 90.0 °F 95.4 °F 70.0 °F 52% 29.98 in 10.0 mi SSW 12.7 mph - N/A   Clear
6:55 PM 89.1 °F 95.0 °F 71.1 °F 55% 29.96 in 10.0 mi SSW 11.5 mph - N/A   Clear
7:55 PM 87.1 °F 92.0 °F 70.0 °F 57% 29.94 in 10.0 mi SSW 13.8 mph - N/A   Clear
8:55 PM 84.9 °F 90.1 °F 71.1 °F 63% 29.92 in 10.0 mi SSW 12.7 mph - N/A   Clear
9:55 PM 84.0 °F 89.0 °F 71.1 °F 65% 29.91 in 10.0 mi SSW 13.8 mph - N/A   Clear
10:55 PM 82.0 °F 87.4 °F 73.0 °F 74% 29.93 in 10.0 mi SW 12.7 mph - N/A   Clear
11:55 PM 82.0 °F 87.4 °F 73.0 °F 74% 29.93 in 10.0 mi SW 12.7 mph - N/A   Clear